Minot, ND

4:09 AM CDT on August 31, 2016 (GMT -0500)
Minot International

Weather History for KMOT - September, 2013

Change the Weather History Date:

Wednesday, September 11, 2013

  Actual Average Record
Temperature  
Mean Temperature 65 °F 60 °F  
Max Temperature 76 °F 72 °F 96 °F (1939)
Min Temperature 54 °F 48 °F 25 °F (1955)
Degree Days  
Heating Degree Days 0 7  
Month to date heating degree days 3 56  
Since 1 July heating degree days 72 127  
Cooling Degree Days 0 1  
Month to date cooling degree days 45 20  
Year to date cooling degree days 416 431  
Growing Degree Days 15 (Base 50)    
Moisture  
Dew Point 47 °F    
Average Humidity 58    
Maximum Humidity 86    
Minimum Humidity 29    
Precipitation  
Precipitation 0.00 in 0.05 in 1.65 in (1978)
Month to date precipitation 1.07 0.56  
Year to date precipitation 21.25 14.00  
Sea Level Pressure  
Sea Level Pressure 30.13 in    
Wind  
Wind Speed 10 mph (WNW)    
Max Wind Speed 17 mph    
Max Gust Speed 23 mph    
Visibility 10 miles    
Events      
T = Trace of Precipitation, MM = Missing Value Source: NWS Daily Summary

Daily Weather History Graph

Daily Weather History Graph

Search for Another Location

Airport or City:

Trip Planner

Search our weather history database for the weather conditions in past years. The results will help you decide how hot, cold, wet, or windy it might be!

Date:

Astronomy

Sep. 11, 2013 Rise Set
Actual Time 7:16 AM CDT 8:05 PM CDT
Civil Twilight 6:45 AM CDT 8:36 PM CDT
Nautical Twilight 6:07 AM CDT 9:14 PM CDT
Astronomical Twilight 5:27 AM CDT 9:54 PM CDT
Moon 2:17 PM CDT (9/11) 11:32 PM CDT (9/11)
Length of Visible Light 13h 51m
Length of Day
12h 48m
Waxing Crescent, 39% of the Moon is Illuminated
Sep 11
Waxing Crescent
Sep 12
First Quarter
Sep 19
Full
Sep 26
Last Quarter
Oct 4
New

Hourly Weather History & Observations

Time (CDT) Temp. Dew Point Humidity Pressure Visibility Wind Dir Wind Speed Gust Speed Precip Events Conditions
12:54 AM 59.0 °F 54.0 °F 83% 29.99 in 10.0 mi SW 8.1 mph - N/A   Clear
1:54 AM 57.9 °F 53.1 °F 84% 30.00 in 10.0 mi SW 10.4 mph - N/A   Clear
2:54 AM 57.0 °F 52.0 °F 83% 30.00 in 10.0 mi SW 10.4 mph - N/A   Clear
3:54 AM 55.9 °F 52.0 °F 87% 30.02 in 10.0 mi SW 6.9 mph - N/A   Clear
4:54 AM 55.0 °F 51.1 °F 86% 30.03 in 10.0 mi SW 9.2 mph - N/A   Clear
5:54 AM 55.9 °F 51.1 °F 84% 30.05 in 10.0 mi WSW 6.9 mph - N/A   Clear
6:54 AM 59.0 °F 46.9 °F 64% 30.06 in 10.0 mi West 6.9 mph - N/A   Clear
7:54 AM 57.0 °F 46.9 °F 69% 30.09 in 10.0 mi West 11.5 mph - N/A   Partly Cloudy
8:54 AM 61.0 °F 46.9 °F 60% 30.10 in 10.0 mi WNW 11.5 mph - N/A   Clear
9:54 AM 64.9 °F 48.0 °F 54% 30.12 in 10.0 mi NW 11.5 mph - N/A   Clear
10:54 AM 69.1 °F 46.9 °F 45% 30.15 in 10.0 mi NW 8.1 mph - N/A   Clear
11:54 AM 72.0 °F 46.0 °F 40% 30.16 in 10.0 mi NNW 12.7 mph - N/A   Clear
12:54 PM 73.0 °F 43.0 °F 34% 30.16 in 10.0 mi NNW 15.0 mph 19.6 mph N/A   Clear
1:54 PM 73.9 °F 43.0 °F 33% 30.16 in 10.0 mi NNW 10.4 mph 21.9 mph N/A   Clear
2:54 PM 75.0 °F 44.1 °F 33% 30.17 in 10.0 mi NW 12.7 mph - N/A   Clear
3:54 PM 75.0 °F 43.0 °F 32% 30.17 in 10.0 mi WNW 13.8 mph 21.9 mph N/A   Clear
4:54 PM 75.0 °F 41.0 °F 29% 30.16 in 10.0 mi WNW 13.8 mph 21.9 mph N/A   Clear
5:54 PM 73.9 °F 41.0 °F 30% 30.17 in 10.0 mi NW 12.7 mph - N/A   Clear
6:54 PM 73.0 °F 42.1 °F 33% 30.17 in 10.0 mi NW 10.4 mph - N/A   Clear
7:54 PM 64.9 °F 46.0 °F 50% 30.19 in 10.0 mi NW 5.8 mph - N/A   Clear
8:54 PM 57.9 °F 46.0 °F 65% 30.22 in 10.0 mi NW 8.1 mph - N/A   Clear
9:54 PM 57.0 °F 46.0 °F 67% 30.23 in 10.0 mi NNW 6.9 mph - N/A   Clear
10:54 PM 55.9 °F 46.9 °F 72% 30.24 in 10.0 mi WNW 8.1 mph - N/A   Clear
11:54 PM 55.0 °F 46.0 °F 72% 30.25 in 10.0 mi WNW 8.1 mph - N/A   Clear